Address 0x08a170fe379017be2a667a9789c2de1bcfd4a12b

 
Txn Hash
Block
From
To
Value [Txn Fee]
0x4652d00e730cc473a0cc85d5ee2cb541a70b614ee75c38870ffdb7822375cfe496690262021-08-01 21:47:424 mins ago0x08a170fe379017be2a667a9789c2de1bcfd4a12bOUT 0xc6e3b9f1abe9e19b555e39a2bfea8bfcf003e2220 BNB0.000184195
0x07866f28bb080160052faf80ac658a297d3fe2f38c3231b784175412eb1e5dd996689482021-08-01 21:43:488 mins ago0x08a170fe379017be2a667a9789c2de1bcfd4a12bOUT 0x6cf963760972db30464a7fb9189415b977f431850 BNB0.000220895
0x4e5aac028f55dae07f9667ded7f8a002e81af5176ee57cdc2b156988e4ac831a96688602021-08-01 21:39:2412 mins ago0x08a170fe379017be2a667a9789c2de1bcfd4a12bSELF0x08a170fe379017be2a667a9789c2de1bcfd4a12b0 BNB0.00011655
0x7d24c71ea5872493c2f99c2b83f5fc937f6801134e75f2de3c99d96be54657a196688432021-08-01 21:38:3313 mins ago0x08a170fe379017be2a667a9789c2de1bcfd4a12bOUT 0xcf43aa6ac1dc40f82e767985ccf7027ae37035750 BNB0.000230025
0xdd6be97d3d3420e01c272ff2a0a3ebd9b9813c39c6ba85d769de08e9cb7ab23496688352021-08-01 21:38:0914 mins ago0x08a170fe379017be2a667a9789c2de1bcfd4a12bOUT 0xdb49ea5e44ffce14661f47d8a43a14459f46e1220 BNB0.000184185
0x7cf186cb7d75dc8bc3173290041d5679ae73aa98a420bcc74b950902071d8b6196687802021-08-01 21:35:2416 mins ago0x08a170fe379017be2a667a9789c2de1bcfd4a12bOUT 0x8ae57a7f606b2d91c739c84e7d0b377271ceac000 BNB0.00073722
0x47dc10e69fa771765966329275eab346cd2089fd1084e5aebf9a6b590ff45b1196687192021-08-01 21:32:1220 mins ago0x08a170fe379017be2a667a9789c2de1bcfd4a12bOUT 0xb16162b7a8351e0e8a51f99deb3c3e98f7c0d22a0 BNB0.00017536
0xf30ef85ec80009ff4b4ce0284b3e541065ebb774a30e4785f01330030ef08e8a96685732021-08-01 21:24:0228 mins ago0x08a170fe379017be2a667a9789c2de1bcfd4a12bOUT 0x6cf963760972db30464a7fb9189415b977f431850 BNB0.00044191
0x0799268de537df8e818a3939060a9ad6d91fd7288be2364c1d138acf4eed046b96685662021-08-01 21:23:4028 mins ago0x08a170fe379017be2a667a9789c2de1bcfd4a12bOUT 0x89c44928685e4b65ee32cb5471c2709a144c2cfc0 BNB0.000921225
0x6f373e5dc1fc843ee6c0fe9924d75664d524f68914e23386fb1d87aa4a25867696684392021-08-01 21:16:3835 mins ago0x08a170fe379017be2a667a9789c2de1bcfd4a12bSELF0x08a170fe379017be2a667a9789c2de1bcfd4a12b0 BNB0.00018648
0xc5fea8560fabc75b6413b30b56e9e964ed830897aa48a5dcaeb7b222e4184b1096684242021-08-01 21:15:5036 mins ago0x08a170fe379017be2a667a9789c2de1bcfd4a12bOUT 0xdb49ea5e44ffce14661f47d8a43a14459f46e1220 BNB0.000220795
0xffcf9ff8f43a668b8c9efb0684ed7ea1ca562dec1cd229b777f8e7df80fe06f196684092021-08-01 21:15:0237 mins ago0x08a170fe379017be2a667a9789c2de1bcfd4a12bOUT 0xc6e3b9f1abe9e19b555e39a2bfea8bfcf003e2220 BNB0.00044179
0x6e197000f67e484cceb49acc21e20822d780ee01c3dfff318725cced3d1bd81496682722021-08-01 21:07:4044 mins ago0x08a170fe379017be2a667a9789c2de1bcfd4a12bOUT 0xc93ec71d4f607208afd4e5c655b250bfc62ee3620 BNB0.000265146
0xdb85611a455c6a9d9e5a9cc3fc3439053826c627da33b60040f51bfe4268f0b896682662021-08-01 21:07:2244 mins ago0x08a170fe379017be2a667a9789c2de1bcfd4a12bOUT 0x366dbd9f3ee341cf0b2ee36adac9da842f4f25540 BNB0.000254514
0x408963e74209c206aca0025ae91a8cbea0b875d437c48f54bb435602112ea62196679632021-08-01 20:52:131 hr ago0x08a170fe379017be2a667a9789c2de1bcfd4a12bOUT 0x89c44928685e4b65ee32cb5471c2709a144c2cfc0 BNB0.000184195
0xbbc6135bfc0f97f37a2a6db3a11bdb702b3c2fd6e6659c0b354688892893656996679402021-08-01 20:51:041 hr 1 min ago0x08a170fe379017be2a667a9789c2de1bcfd4a12bOUT 0x89c44928685e4b65ee32cb5471c2709a144c2cfc0 BNB0.000184185
0xa3220dc4eaaa4dafcd2e95bfcaea1936b83c9d5158c49ed812892bd0e44d954d96678492021-08-01 20:46:311 hr 5 mins ago0x08a170fe379017be2a667a9789c2de1bcfd4a12bOUT 0xe97a25e36ae27944c9f7b3e99aa6de0edca133e10 BNB0.0012432372
0xb4de1396bc3279261e74cb477e7bd0f49ffdb3a34d055421bdef2463d92df1d096678362021-08-01 20:45:521 hr 6 mins ago0x08a170fe379017be2a667a9789c2de1bcfd4a12bOUT 0xfeb6864f8cf53e9d4e884f30be63538b0949105e0 BNB0.000229965
0xae2ab840c4a8c241e7e0d1651d056c44c7543298c2af78138ffe5b54525c4f6196678072021-08-01 20:44:251 hr 7 mins ago0x08a170fe379017be2a667a9789c2de1bcfd4a12bOUT 0xdb49ea5e44ffce14661f47d8a43a14459f46e1220 BNB0.000184485
0x4b566c78eae280b75217d02d0e5aee42db45c770d6b8fd594cd8069cdefc51aa96677182021-08-01 20:39:581 hr 12 mins ago0x08a170fe379017be2a667a9789c2de1bcfd4a12bOUT 0xc93ec71d4f607208afd4e5c655b250bfc62ee3620 BNB0.000211955
0xb3adfcbadb3da443eecda3173a724682371fcb4f27b6c995e47e2ac115d832a596676822021-08-01 20:38:101 hr 14 mins ago0x08a170fe379017be2a667a9789c2de1bcfd4a12bOUT 0x89c44928685e4b65ee32cb5471c2709a144c2cfc0 BNB0.000663045
0x9955fa40cd3090235edb4e2fb95bb80f9239d02ca289b6010a49053ad7e7cb9396676212021-08-01 20:35:071 hr 17 mins ago0x08a170fe379017be2a667a9789c2de1bcfd4a12bOUT 0xb56c574b89318e117aedda1257f06d04d80e05280 BNB0.000202635
0x45f0a84e9a6e45907fa8c61387cd3873d16318a52329af1cfe1f14b0e6f7d71596675822021-08-01 20:33:101 hr 19 mins ago0x08a170fe379017be2a667a9789c2de1bcfd4a12bOUT 0xc93ec71d4f607208afd4e5c655b250bfc62ee3620 BNB0.00022136
0x667ece91b4537b6bbced877210fbee91d7305228fe7d0b8351f489caf6ddf95a96675532021-08-01 20:31:431 hr 20 mins ago0x08a170fe379017be2a667a9789c2de1bcfd4a12bOUT 0xcf43aa6ac1dc40f82e767985ccf7027ae37035750 BNB0.000230145
0x84c74f2512708eeee5f951e2698f12bf1a89dcf03463f8c9527154d5e2be6e2996675052021-08-01 20:29:161 hr 22 mins ago0x08a170fe379017be2a667a9789c2de1bcfd4a12bOUT 0x366dbd9f3ee341cf0b2ee36adac9da842f4f25540 BNB0.000202515
[ Download CSV Export 
Parent Txn Hash Block From To Value
Loading

Contract Name:
0 BNB

Compiler Version
0

Optimization Enabled:
0 BNB

Other Settings:
-NA-
Block Transaction Gas Used Reward
Age Block Fee Address BC Fee Address Voting Power Jailed Incoming
Block Uncle Number Difficulty Gas Used Reward
Loading
Loading
Make sure to use the "Vote Down" button for any spammy posts, and the "Vote Up" for interesting conversations.